Weather History for Marshall, MN

Change the Weather History Date:

Saturday, January 18, 2014

  Actual Average Record
Temperature  
Mean Temperature 25 °F -  
Max Temperature 35 °F 24 °F 50 °F (1981)
Min Temperature 15 °F 3 °F -30 °F (1970)
Degree Days  
Heating Degree Days 40    
Moisture  
Dew Point 17 °F    
Average Humidity 76    
Maximum Humidity 87    
Minimum Humidity 55    
Precipitation  
Precipitation 0.00 in - - ()
Sea Level Pressure  
Sea Level Pressure 29.71 in    
Wind  
Wind Speed 21 mph (WNW)    
Max Wind Speed 32 mph    
Max Gust Speed 38 mph    
Visibility 8 miles    
Events      
Averages and records for this station are not official NWS values.
T = Trace of Precipitation, MM = Missing Value Source: NWS Daily Summary

Daily Weather History Graph

Daily Weather History Graph

Search for Another Location

Airport:

Trip Planner

Search our weather history database for the weather conditions in past years. The results will help you decide how hot, cold, wet, or windy it might be!

Date:

Astronomy

Jan. 18, 2014 Rise Set
Actual Time 7:54 AM CST 5:13 PM CST
Civil Twilight 7:22 AM CST 5:45 PM CST
Nautical Twilight 6:46 AM CST 6:21 PM CST
Astronomical Twilight 6:11 AM CST 6:56 PM CST
Moon 8:04 PM CST (1/18) 8:47 AM CST (1/18)
Length of Visible Light 10h 23m
Length of Day
9h 19m
Waning Gibbous, 94% of the Moon is Illuminated
Jan 18
Waning Gibbous
Jan 23
Last Quarter
Jan 30
New
Feb 6
First Quarter
Feb 14
Full

Hourly Weather History & Observations

Time (CST) Temp. Windchill Dew Point Humidity Pressure Visibility Wind Dir Wind Speed Gust Speed Precip Events Conditions
12:15 AM 26.6 °F 13.4 °F 12.2 °F 55% 29.54 in 10.0 mi South 18.4 mph - N/A   Mostly Cloudy
12:35 AM 26.6 °F 12.7 °F 15.8 °F 64% 29.50 in 10.0 mi SSW 20.7 mph 25.3 mph N/A   Mostly Cloudy
12:55 AM 28.4 °F 12.7 °F 15.8 °F 59% 29.48 in 10.0 mi SSW 29.9 mph 34.5 mph N/A   Overcast
1:15 AM 28.4 °F 13.0 °F 15.8 °F 59% 29.46 in 10.0 mi SW 28.8 mph 36.8 mph N/A   Overcast
1:35 AM 28.4 °F 14.1 °F 15.8 °F 59% 29.47 in 10.0 mi SW 24.2 mph 31.1 mph N/A   Overcast
1:55 AM 28.4 °F 14.7 °F 15.8 °F 59% 29.46 in 10.0 mi WSW 21.9 mph 28.8 mph N/A   Overcast
2:15 AM 28.4 °F 15.1 °F 19.4 °F 69% 29.46 in 9.0 mi WSW 20.7 mph - N/A   Mostly Cloudy
2:35 AM 30.2 °F 16.8 °F 24.8 °F 80% 29.45 in 2.0 mi West 23.0 mph 32.2 mph N/A   Overcast
2:55 AM 30.2 °F 17.4 °F 26.6 °F 86% 29.44 in 0.8 mi West 20.7 mph 34.5 mph N/A   Overcast
3:15 AM 30.2 °F 17.1 °F 26.6 °F 86% 29.43 in 10.0 mi West 21.9 mph - N/A   Overcast
3:35 AM 33.8 °F 22.2 °F 26.6 °F 75% 29.43 in 3.0 mi WNW 20.7 mph - N/A   Overcast
3:55 AM 33.8 °F 21.9 °F 28.4 °F 81% 29.42 in 2.5 mi WNW 21.9 mph - N/A   Overcast
4:15 AM 33.8 °F 22.2 °F 28.4 °F 81% 29.42 in 4.0 mi WNW 20.7 mph - N/A   Overcast
4:35 AM 33.8 °F 21.3 °F 28.4 °F 81% 29.41 in 7.0 mi WNW 24.2 mph - N/A   Overcast
4:55 AM 33.8 °F 22.2 °F 30.2 °F 87% 29.41 in 10.0 mi WNW 20.7 mph - N/A   Mostly Cloudy
5:15 AM 33.8 °F 21.9 °F 30.2 °F 87% 29.41 in 10.0 mi WNW 21.9 mph 27.6 mph N/A   Mostly Cloudy
5:35 AM 35.6 °F 24.8 °F 30.2 °F 81% 29.41 in 10.0 mi WNW 19.6 mph - N/A   Overcast
5:55 AM 35.6 °F 24.2 °F 28.4 °F 75% 29.40 in 10.0 mi NW 21.9 mph - N/A   Overcast
6:15 AM 35.6 °F 24.0 °F 28.4 °F 75% 29.40 in 10.0 mi NW 23.0 mph - N/A   Overcast
6:35 AM 35.6 °F 23.4 °F 28.4 °F 75% 29.41 in 10.0 mi NW 25.3 mph 33.4 mph N/A   Overcast
6:55 AM 33.8 °F 22.8 °F 28.4 °F 81% 29.43 in 3.0 mi North 18.4 mph 35.7 mph N/A   Overcast
7:15 AM 32.0 °F 18.4 °F 26.6 °F 80% 29.44 in 10.0 mi NNW 26.5 mph 33.4 mph N/A   Overcast
7:35 AM 30.2 °F 15.2 °F 24.8 °F 80% 29.46 in 6.0 mi NNW 29.9 mph 38.0 mph N/A   Overcast
7:55 AM 28.4 °F 12.3 °F 24.8 °F 86% 29.48 in 2.0 mi NNW 32.2 mph 35.7 mph N/A   Overcast
8:15 AM 26.6 °F 10.6 °F 21.2 °F 80% 29.50 in 2.0 mi NNW 28.8 mph 34.5 mph N/A   Overcast
8:35 AM 26.6 °F 10.8 °F 21.2 °F 80% 29.53 in 1.0 mi North 27.6 mph 36.8 mph N/A   Overcast
8:55 AM 21.2 °F 4.2 °F 15.8 °F 80% 29.58 in 1.8 mi North 25.3 mph 33.4 mph N/A   Overcast
9:15 AM 19.4 °F 2.8 °F 12.2 °F 74% 29.63 in 2.0 mi NNE 21.9 mph 28.8 mph N/A   Overcast
9:35 AM 17.6 °F -0.6 °F 12.2 °F 79% 29.68 in 3.0 mi North 25.3 mph 32.2 mph N/A   Overcast
9:55 AM 17.6 °F -1.0 °F 8.6 °F 68% 29.71 in 5.0 mi North 26.5 mph 34.5 mph N/A   Overcast
10:15 AM 17.6 °F -1.9 °F 10.4 °F 73% 29.74 in 5.0 mi North 29.9 mph 33.4 mph N/A   Overcast
10:35 AM 15.8 °F -3.4 °F 8.6 °F 73% 29.78 in 6.0 mi North 26.5 mph 33.4 mph N/A   Overcast
10:55 AM 15.8 °F -3.4 °F 8.6 °F 73% 29.81 in 4.0 mi North 26.5 mph 34.5 mph N/A   Mostly Cloudy
11:15 AM 15.8 °F -2.7 °F 8.6 °F 73% 29.82 in 7.0 mi North 24.2 mph 31.1 mph N/A   Mostly Cloudy
11:35 AM 15.8 °F -3.1 °F 8.6 °F 73% 29.84 in 10.0 mi North 25.3 mph 33.4 mph N/A   Mostly Cloudy
11:55 AM 15.8 °F -3.1 °F 8.6 °F 73% 29.85 in 10.0 mi North 25.3 mph 32.2 mph N/A   Mostly Cloudy
12:15 PM 15.8 °F -2.7 °F 10.4 °F 79% 29.87 in 10.0 mi North 24.2 mph 32.2 mph N/A   Mostly Cloudy
12:35 PM 15.8 °F -2.3 °F 10.4 °F 79% 29.87 in 10.0 mi North 23.0 mph - N/A   Mostly Cloudy
12:55 PM 15.8 °F -0.2 °F 8.6 °F 73% 29.88 in 10.0 mi North 17.3 mph - N/A   Partly Cloudy
1:15 PM 15.8 °F -1.5 °F 10.4 °F 79% 29.89 in 10.0 mi NNW 20.7 mph 24.2 mph N/A   Clear
1:35 PM 15.8 °F -1.1 °F 8.6 °F 73% 29.90 in 10.0 mi North 19.6 mph - N/A   Clear
1:55 PM 17.6 °F 3.2 °F 10.4 °F 73% 29.90 in 10.0 mi NNW 15.0 mph - N/A   Clear
2:15 PM 17.6 °F 1.7 °F 10.4 °F 73% 29.92 in 10.0 mi NNW 18.4 mph - N/A   Clear
2:35 PM 17.6 °F 0.1 °F 10.4 °F 73% 29.94 in 10.0 mi NNW 23.0 mph - N/A   Clear
2:55 PM 17.6 °F 0.9 °F 10.4 °F 73% 29.94 in 10.0 mi NNW 20.7 mph - N/A   Clear
3:15 PM 19.4 °F 3.2 °F 10.4 °F 68% 29.95 in 10.0 mi NNW 20.7 mph - N/A   Clear
3:35 PM 19.4 °F 5.0 °F 12.2 °F 74% 29.96 in 10.0 mi NNW 16.1 mph - N/A   Clear
3:55 PM 19.4 °F 5.0 °F 12.2 °F 74% 29.97 in 10.0 mi NW 16.1 mph - N/A   Clear
4:15 PM 19.4 °F 5.0 °F 12.2 °F 74% 29.99 in 10.0 mi NW 16.1 mph - N/A   Clear
4:35 PM 19.4 °F 6.0 °F 12.2 °F 74% 29.99 in 10.0 mi NW 13.8 mph - N/A   Clear
4:55 PM 19.4 °F 10.4 °F 12.2 °F 74% 29.98 in 10.0 mi NW 6.9 mph - N/A   Clear
5:15 PM 17.6 °F 9.3 °F 12.2 °F 79% 29.98 in 10.0 mi WNW 5.8 mph - N/A   Clear
5:35 PM 17.6 °F 10.7 °F 12.2 °F 79% 29.97 in 10.0 mi WNW 4.6 mph - N/A   Clear
5:55 PM 15.8 °F 2.7 °F 8.6 °F 73% 29.96 in 10.0 mi West 11.5 mph - N/A   Clear
6:15 PM 17.6 °F 5.7 °F 10.4 °F 73% 29.97 in 10.0 mi West 10.4 mph - N/A   Clear
6:35 PM 17.6 °F 5.7 °F 10.4 °F 73% 29.96 in 10.0 mi West 10.4 mph - N/A   Clear
6:55 PM 17.6 °F 3.7 °F 10.4 °F 73% 29.94 in 10.0 mi West 13.8 mph - N/A   Clear
7:15 PM 17.6 °F 3.7 °F 10.4 °F 73% 29.94 in 10.0 mi West 13.8 mph - N/A   Clear
7:35 PM 17.6 °F 5.7 °F 12.2 °F 79% 29.93 in 10.0 mi West 10.4 mph - N/A   Mostly Cloudy
7:55 PM 19.4 °F 8.6 °F 14.0 °F 80% 29.90 in 10.0 mi West 9.2 mph - N/A   Partly Cloudy
8:15 PM 21.2 °F 9.5 °F 15.8 °F 80% 29.89 in 10.0 mi West 11.5 mph - N/A   Clear
8:35 PM 21.2 °F 9.5 °F 17.6 °F 86% 29.88 in 10.0 mi West 11.5 mph - N/A   Clear
8:55 PM 21.2 °F 10.1 °F 17.6 °F 86% 29.86 in 10.0 mi West 10.4 mph - N/A   Clear
9:15 PM 23.0 °F 14.7 °F 19.4 °F 86% 29.86 in 10.0 mi WSW 6.9 mph - N/A   Mostly Cloudy
9:35 PM 23.0 °F 11.7 °F 17.6 °F 80% 29.84 in 10.0 mi WSW 11.5 mph - N/A   Partly Cloudy
9:55 PM 24.8 °F 14.6 °F 19.4 °F 80% 29.83 in 10.0 mi WSW 10.4 mph - N/A   Clear
10:15 PM 24.8 °F 12.4 °F 19.4 °F 80% 29.79 in 10.0 mi WSW 15.0 mph - N/A   Clear
10:35 PM 24.8 °F 11.9 °F 17.6 °F 74% 29.76 in 10.0 mi WSW 16.1 mph 23.0 mph N/A   Clear
10:55 PM 24.8 °F 10.0 °F 17.6 °F 74% 29.75 in 10.0 mi WSW 21.9 mph 27.6 mph N/A   Clear
11:15 PM 26.6 °F 11.7 °F 19.4 °F 74% 29.73 in 10.0 mi WSW 24.2 mph 27.6 mph N/A   Clear
11:35 PM 26.6 °F 13.8 °F 19.4 °F 74% 29.74 in 10.0 mi WSW 17.3 mph 25.3 mph N/A   Clear
11:55 PM 28.4 °F 14.7 °F 21.2 °F 74% 29.73 in 10.0 mi WSW 21.9 mph 31.1 mph N/A   Clear